GFSMW_prec_cloud_057.txt.gz
Cloud_Cover
1 7 100 72 68 0 0 0 0 0 0 0 0 0 0 0 0 0 67 42 1 1 0 0 0 1 71 0 96 3 14 54 100 1 0 0 100 100 0 0 0 0 0
83 100 80 99 22 0 0 0 0 0 0 0 0 0 0 0 0 0 0 1 4 4 0 1 0 0 0 0 0 0 54 88 1 0 94 42 52 4 1 0 0 0 0
100 99 89 6 0 0 0 0 0 0 0 0 0 0 0 0 0 0 0 0 0 0 8 2 77 0 0 0 0 0 0 0 2 0 41 19 34 0 23 91 0 0 0
100 54 69 0 0 0 0 0 0 0 0 0 0 0 0 0 0 0 0 0 0 3 5 3 1 0 59 0 0 16 0 0 8 0 56 23 5 0 0 16 2 0 0
100 38 0 0 0 0 0 0 0 0 0 0 0 0 0 1 0 0 33 0 1 5 6 4 0 0 5 0 0 16 19 0 0 0 0 0 75 6 6 0 0 0 0
100 86 0 0 0 0 0 0 0 0 0 0 0 0 0 0 16 0 7 47 3 7 44 0 0 0 3 1 3 0 0 0 0 0 0 1 100 0 82 13 0 0 0
100 41 0 0 0 0 0 0 0 0 0 0 0 0 0 0 0 0 0 100 20 1 0 0 0 0 0 0 2 0 0 0 5 0 64 0 0 0 41 8 0 0 0
100 45 0 0 0 0 0 0 0 0 0 0 0 0 0 0 0 0 0 59 19 0 0 0 0 0 0 0 0 0 0 0 0 0 0 0 0 0 0 0 0 0 0
100 88 22 0 0 0 0 0 0 0 0 0 0 0 0 0 0 0 0 0 9 0 0 0 0 0 0 0 0 0 0 0 0 0 0 0 0 0 0 0 0 0 0
98 86 10 2 5 1 0 0 0 0 0 0 0 0 0 0 0 0 0 0 0 0 0 0 0 0 0 0 0 0 0 0 0 0 0 0 0 0 0 0 0 0 0
96 100 100 100 2 58 11 0 0 0 0 0 0 0 0 0 0 0 0 0 0 0 0 0 0 0 0 0 0 0 0 0 0 0 0 0 0 0 0 0 0 0 0
100 100 100 100 100 17 5 4 0 0 0 0 0 0 0 0 0 0 0 0 0 0 0 0 0 0 0 0 0 0 0 0 0 0 0 0 0 0 0 0 0 0 0
100 100 100 100 100 95 20 19 5 2 0 0 0 0 0 0 0 0 0 0 0 0 0 0 0 0 0 0 0 0 0 0 0 0 0 0 0 0 0 0 0 1 4
100 100 100 100 100 85 93 100 32 5 0 0 0 0 0 0 0 0 0 0 0 0 0 0 0 0 0 0 0 0 0 0 0 0 0 0 0 0 0 0 0 0 0
69 100 100 100 100 96 93 100 92 5 0 0 0 0 0 0 0 0 0 0 0 0 0 0 0 0 0 0 0 0 0 0 0 0 0 0 0 0 0 0 0 0 0
56 64 100 100 100 100 100 100 100 100 30 0 0 0 0 0 0 0 0 0 0 0 0 0 0 0 0 0 0 0 0 0 0 0 0 0 0 0 0 0 0 0 0
67 67 98 100 100 100 100 100 100 41 87 5 4 0 0 0 0 0 0 0 0 0 0 0 0 0 0 0 0 1 0 0 0 0 0 0 0 0 0 0 0 0 0
100 5 30 98 100 100 100 100 100 100 79 55 42 0 0 0 0 0 0 0 0 0 0 0 0 0 0 0 0 1 0 0 0 0 0 0 0 0 0 0 0 0 0
95 2 0 100 100 100 100 100 100 100 100 100 100 84 0 0 0 0 0 0 0 0 0 0 0 0 0 0 0 0 0 0 0 0 0 0 0 0 0 0 0 0 0
90 5 0 43 100 100 100 100 100 100 100 100 100 96 4 0 0 0 0 0 0 0 0 0 0 0 0 0 0 0 0 0 0 0 0 0 0 0 0 0 0 0 0
67 9 16 4 94 98 44 83 100 100 100 100 100 84 16 4 0 0 0 0 0 0 0 0 0 0 0 0 0 0 0 0 0 0 0 0 0 0 0 0 0 0 0
100 91 6 17 24 85 70 100 100 100 100 100 100 52 3 5 4 0 0 0 0 0 0 0 0 0 0 0 25 0 3 0 0 0 0 0 0 0 17 24 18 8 48
7 100 98 74 21 5 5 54 100 100 100 99 89 91 5 2 5 0 0 0 0 0 0 0 0 0 0 0 24 24 0 0 0 0 0 1 0 83 38 20 30 5 6
5 92 100 100 53 85 28 71 95 100 100 100 100 88 1 0 0 0 0 0 0 0 0 1 9 7 1 0 0 3 16 35 15 0 7 2 11 77 99 100 100 99 86
85 100 100 100 99 100 79 95 70 74 48 3 4 17 0 0 0 0 0 0 0 0 0 0 0 13 14 0 0 0 0 0 0 0 0 3 32 100 100 92 100 100 100
94 98 78 100 44 100 93 82 100 100 100 86 0 0 0 0 0 0 47 100 86 91 44 0 0 0 48 0 0 30 36 19 48 5 4 5 90 100 100 100 100 100 100

GFSMW_prec_cloud_060.txt.gz
Cloud_Cover
100 100 100 70 100 96 0 0 0 0 0 0 4 8 5 0 0 2 5 0 0 47 0 0 0 0 0 0 0 29 0 20 0 0 35 97 16 0 0 0 0 0 0
100 100 100 100 100 51 0 0 0 0 0 0 0 0 0 0 0 1 5 5 1 2 0 0 0 0 0 0 0 0 11 90 9 0 0 42 2 0 0 0 0 0 0
100 100 100 99 97 18 0 0 0 0 0 0 0 0 0 0 0 0 0 0 0 0 0 3 0 0 0 0 0 6 100 1 0 0 12 0 0 0 0 0 0 0 0
100 100 100 100 84 97 0 0 0 0 0 0 0 0 0 0 0 0 0 0 0 0 0 4 0 0 0 0 0 0 0 0 0 5 36 0 0 0 1 0 0 0 0
100 100 85 100 81 0 0 0 0 0 0 0 0 0 0 0 0 0 0 0 1 0 5 2 0 0 27 0 0 0 0 0 0 4 1 0 30 6 0 0 0 0 0
100 100 100 100 24 16 0 0 0 0 0 0 0 0 0 0 0 0 0 0 0 5 58 2 0 0 1 0 0 0 0 0 0 0 0 4 53 17 14 0 0 0 0
73 36 4 80 0 0 0 0 0 0 0 0 0 0 0 0 0 0 0 0 0 18 42 0 0 0 0 0 0 0 0 0 0 0 0 47 11 0 0 0 0 0 0
82 97 18 2 4 0 0 0 0 0 0 0 0 0 0 0 0 0 0 0 8 0 2 0 0 0 0 0 0 0 0 0 0 0 0 0 0 0 0 0 0 0 0
100 100 100 6 0 0 0 0 0 0 0 0 0 0 0 0 0 0 0 0 0 0 0 0 0 0 0 0 0 0 0 0 0 0 0 0 0 0 0 0 0 0 0
100 100 100 100 3 0 0 0 0 0 0 0 0 0 0 0 0 0 0 0 0 11 0 0 0 0 0 0 0 0 0 0 0 0 0 0 0 0 0 0 0 0 0
99 98 93 71 29 2 0 0 0 0 0 0 0 0 0 0 0 0 0 0 0 0 0 0 0 0 0 0 0 0 0 0 0 0 0 0 0 0 0 0 0 0 0
100 100 100 100 15 1 46 68 0 0 0 0 0 0 0 0 0 0 0 0 0 0 0 0 0 0 0 0 0 0 0 0 0 0 0 0 0 0 0 0 0 0 0
100 100 100 84 70 11 47 100 0 0 0 0 0 0 0 0 0 0 0 0 0 0 0 0 0 0 0 0 0 0 0 0 0 0 0 0 0 0 0 0 0 0 0
87 100 100 100 100 92 94 55 1 0 4 2 0 0 0 0 0 0 0 0 0 0 0 0 0 0 0 0 0 0 0 0 0 0 0 0 0 0 0 0 0 0 0
73 100 100 100 99 100 99 100 99 5 32 5 0 0 0 0 0 0 0 0 0 0 0 0 0 0 0 0 0 0 0 0 0 0 3 8 21 3 0 0 0 0 0
100 100 100 100 100 94 58 100 100 51 5 5 2 0 0 0 0 0 0 0 0 0 0 0 0 0 0 0 0 0 0 2 5 5 22 10 5 0 0 0 0 0 0
100 100 100 100 99 92 98 100 98 100 100 100 100 50 0 0 0 0 0 0 0 0 0 0 0 0 0 0 0 2 0 0 0 5 5 5 8 0 0 0 1 0 1
100 100 100 100 100 100 99 47 34 100 98 100 100 100 84 0 0 0 0 0 0 0 0 0 0 0 0 0 0 0 0 0 0 4 5 3 0 0 0 0 0 0 0
98 100 100 100 100 99 100 98 100 100 100 100 100 55 100 0 4 37 0 0 0 0 0 0 0 0 0 0 0 0 0 0 0 0 0 0 0 0 0 0 0 0 0
95 87 100 98 100 100 100 100 100 100 100 100 100 100 100 100 5 94 100 0 0 0 0 0 0 0 0 0 0 8 0 0 0 0 0 0 0 0 1 0 18 6 5
100 62 78 35 100 100 100 100 100 100 100 100 100 100 100 100 96 100 100 88 0 0 0 0 0 0 0 0 0 8 0 0 0 0 0 0 3 2 4 71 100 100 54
100 99 98 24 99 100 100 100 100 100 100 100 100 100 100 100 100 100 100 97 0 0 0 0 0 0 0 1 10 16 46 0 0 0 0 0 0 2 7 12 98 99 20
100 100 100 98 81 100 100 100 100 58 100 100 100 100 100 100 100 100 100 100 9 0 0 0 0 0 0 0 54 28 26 6 0 0 0 0 0 0 24 8 14 86 100
2 99 100 100 99 99 100 100 76 100 100 100 100 100 100 100 100 100 81 53 1 0 0 0 0 0 0 0 0 5 47 61 42 0 0 0 0 2 8 100 100 100 100
0 3 23 68 96 92 97 72 91 100 100 100 100 100 100 100 100 100 100 27 3 0 0 0 3 1 0 0 0 0 0 0 11 20 18 20 33 26 91 100 100 100 100
4 29 10 100 48 99 100 32 100 100 100 100 100 98 97 100 100 100 100 100 86 54 10 2 0 0 2 0 11 86 100 96 92 58 65 57 72 74 100 100 89 100 100

GFSMW_prec_cloud_063.txt.gz
Cloud_Cover
10 100 99 100 100 100 100 28 0 0 0 0 0 0 0 0 0 0 1 0 1 1 0 0 0 36 0 0 0 0 2 0 0 0 0 0 0 0 0 0 0 0 0
16 100 100 100 100 94 100 24 0 0 0 0 0 0 0 0 0 23 6 1 5 2 0 0 0 0 0 0 0 0 7 0 0 0 94 29 0 0 0 0 0 0 0
57 100 74 100 92 100 89 3 0 0 0 0 0 0 0 0 0 45 0 1 1 4 5 0 0 3 0 0 0 0 4 15 0 0 0 2 1 0 0 0 0 0 0
100 100 17 100 98 100 100 1 0 0 0 0 0 0 0 0 0 1 0 0 3 1 8 0 3 0 0 0 0 3 82 0 0 0 0 0 0 0 0 0 0 0 0
99 94 5 3 24 100 92 0 0 0 0 0 0 0 0 0 0 0 0 0 1 4 62 3 3 0 0 0 0 0 0 0 0 12 0 0 0 0 0 0 0 0 0
69 6 10 20 26 77 19 0 3 0 0 0 0 0 0 0 0 0 0 0 0 6 8 1 1 0 0 0 0 0 0 0 0 36 0 0 42 3 0 0 0 0 0
100 100 37 74 1 11 0 0 0 0 0 0 0 0 0 0 0 0 0 0 0 2 5 0 0 0 0 0 0 0 0 0 0 0 0 0 22 14 0 0 0 0 0
98 94 5 4 5 4 0 0 0 0 0 0 0 0 0 0 0 0 0 0 0 1 5 0 0 0 0 0 0 0 0 0 0 0 0 0 0 0 0 0 0 0 0
100 93 8 6 5 8 0 0 0 0 0 0 0 0 0 0 0 0 0 0 0 0 0 0 0 0 0 0 0 0 0 0 0 0 0 0 0 0 0 0 5 0 0
58 93 47 20 5 8 1 0 0 0 0 0 0 0 0 0 0 0 0 0 0 4 0 0 0 0 0 0 0 0 0 0 0 0 0 0 0 0 0 0 0 0 5
74 100 96 4 23 5 0 0 0 0 0 0 0 0 0 0 0 0 0 0 0 8 48 0 0 0 0 0 0 0 0 0 0 0 0 0 0 0 0 0 0 0 2
1 100 100 100 100 59 4 1 0 0 0 0 0 0 0 0 0 0 0 0 0 0 0 0 0 0 0 0 0 0 0 0 0 0 0 2 5 4 0 0 0 0 0
0 6 100 100 100 100 10 0 0 0 0 0 0 0 0 0 0 0 0 0 0 0 0 0 0 0 0 0 0 0 0 0 0 0 5 5 23 16 5 0 0 0 0
97 58 68 100 100 100 98 30 1 0 0 0 0 0 0 0 0 0 0 0 0 0 0 0 0 0 0 0 0 0 0 0 0 2 5 23 68 78 24 2 0 0 0
100 100 100 100 100 97 100 94 0 0 0 0 0 0 0 0 0 0 0 0 0 0 0 0 0 0 0 0 0 0 0 0 1 5 18 24 44 61 94 5 0 0 0
92 100 100 100 100 100 100 86 0 6 0 0 0 0 0 0 0 0 0 0 0 0 0 0 0 0 0 0 0 0 0 0 0 1 0 5 46 68 44 0 0 0 0
0 91 100 100 100 95 93 25 46 100 95 0 3 0 0 0 0 0 0 0 0 0 0 0 0 0 0 0 0 0 0 0 0 0 0 4 10 4 0 0 3 1 5
0 10 99 100 100 100 100 53 12 100 100 94 3 0 0 0 0 0 0 0 0 0 0 0 0 0 0 0 0 0 0 0 0 0 0 0 1 0 0 0 4 5 5
3 0 71 100 100 100 100 73 64 87 100 100 79 38 5 4 0 0 0 0 0 0 0 0 0 0 0 0 0 0 0 0 0 0 0 0 0 0 0 0 1 42 11
27 5 12 100 95 92 100 100 91 100 27 59 47 72 82 56 62 1 0 0 0 0 0 0 0 0 0 0 7 18 0 0 0 0 0 0 0 0 14 2 0 15 7
98 54 73 76 87 100 86 97 100 100 100 86 87 99 100 60 97 40 16 100 100 14 0 0 0 0 0 0 0 7 0 0 0 0 0 0 0 11 23 55 4 5 5
14 99 63 99 100 100 74 35 100 100 100 100 88 85 97 90 100 100 100 100 100 100 29 0 0 0 0 0 18 14 36 0 0 0 0 0 0 2 24 43 24 12 48
2 6 100 100 100 100 100 78 99 100 100 100 78 100 99 99 99 64 90 100 100 100 100 96 5 0 0 0 55 13 28 15 1 0 0 0 0 2 20 10 17 50 100
60 6 48 94 100 100 100 94 61 100 88 100 100 100 100 100 90 70 100 100 97 100 100 23 93 25 0 0 0 28 65 74 56 0 5 0 1 5 0 5 9 5 64
80 13 0 0 80 100 100 100 13 100 100 68 100 100 100 100 100 59 95 98 72 77 100 69 99 100 0 0 0 0 2 7 18 11 65 85 61 39 18 4 18 90 100
100 100 55 0 0 66 100 100 100 100 90 65 98 100 100 100 100 100 73 100 100 86 100 99 100 100 5 4 18 70 100 100 98 94 100 100 100 100 61 42 8 88 21

GFSMW_prec_cloud_069.txt.gz
Cloud_Cover
84 84 100 7 100 29 58 0 5 0 0 0 0 0 0 0 0 0 5 2 0 0 0 0 0 0 0 0 0 0 0 0 0 0 0 0 0 0 0 0 0 0 0
58 43 99 5 98 45 17 3 4 39 0 0 0 0 0 0 0 0 5 5 1 0 0 0 0 26 0 0 0 0 0 0 0 0 0 0 0 0 0 0 0 0 0
0 4 47 2 18 20 4 3 3 66 0 0 0 0 0 0 0 0 4 5 0 0 0 0 0 0 0 0 0 0 0 0 0 0 0 0 0 0 0 0 0 0 0
61 0 2 0 96 62 5 6 1 2 0 0 0 0 0 0 0 0 5 2 0 0 0 0 0 0 0 0 0 0 0 0 0 0 0 0 1 0 0 0 0 0 0
55 0 0 1 100 99 4 7 0 0 0 0 0 0 0 0 0 0 3 4 0 3 0 1 4 0 0 0 0 0 40 1 0 0 0 0 6 0 0 0 0 0 0
0 0 0 5 39 90 4 2 0 0 0 0 0 0 0 0 0 0 0 0 0 1 0 0 3 0 0 0 0 0 0 0 0 0 0 0 46 0 0 0 0 0 0
0 1 3 4 5 27 5 0 2 0 3 0 0 0 0 0 0 0 0 0 0 0 0 0 3 0 0 0 0 0 0 0 0 0 0 0 2 0 0 0 0 0 0
1 21 0 5 5 69 56 5 0 0 0 6 0 0 0 0 0 0 0 0 0 0 0 0 0 0 0 0 0 0 0 0 0 3 0 0 0 0 0 0 0 0 0
5 22 60 62 59 89 49 5 2 2 0 0 0 0 0 0 0 0 0 0 0 0 0 0 0 0 0 0 0 0 0 0 0 0 0 0 0 0 0 0 0 0 0
100 43 87 76 89 100 58 84 15 0 0 1 0 0 0 0 0 0 0 0 0 0 0 0 0 0 2 5 5 0 0 0 0 0 0 0 5 5 0 0 0 0 0
33 100 100 98 74 100 98 11 3 14 34 14 4 0 0 0 0 0 0 0 0 0 0 0 0 0 0 0 0 0 0 0 0 0 0 0 5 5 4 0 0 0 0
100 100 83 87 78 92 93 88 25 66 100 99 99 58 58 0 0 0 0 0 0 0 0 0 0 0 1 0 0 4 0 0 0 0 0 1 5 5 4 0 0 0 0
89 85 88 100 98 100 100 100 70 36 73 100 100 100 97 17 0 0 0 0 0 0 0 0 0 0 0 0 0 0 2 0 0 0 0 0 3 6 5 5 0 4 0
100 100 100 97 100 100 100 82 98 100 100 98 90 90 94 94 88 7 0 0 0 0 0 0 0 0 0 0 0 0 0 0 0 0 0 0 2 4 5 5 3 5 0
100 100 100 100 100 100 100 82 100 99 100 100 80 2 0 23 100 98 23 0 0 0 0 0 0 0 0 0 0 0 0 0 0 0 0 0 0 0 5 5 2 5 5
92 100 100 100 100 100 100 100 100 100 100 100 100 1 0 0 0 5 98 97 2 0 0 0 0 0 0 0 0 0 0 0 0 0 0 0 0 16 2 0 0 5 1
0 27 100 100 100 100 100 100 99 100 100 100 100 100 23 3 0 0 0 0 3 0 0 0 0 0 0 0 0 0 0 0 0 0 0 0 0 0 0 16 25 36 6
0 0 5 35 100 100 100 93 96 94 100 100 100 100 100 43 26 28 5 0 0 0 0 0 0 0 0 0 0 0 0 0 0 0 0 0 0 0 0 0 0 0 4
0 0 0 0 1 68 100 100 100 100 95 100 100 100 100 98 18 50 18 3 1 0 0 0 0 0 0 0 0 5 0 0 0 0 0 0 0 0 0 0 0 0 0
0 0 0 0 0 0 20 74 100 100 99 100 100 100 100 100 100 56 29 50 68 28 3 0 0 0 0 0 0 9 0 0 0 0 0 0 0 0 0 0 0 0 0
0 0 0 0 0 0 0 32 100 100 100 93 100 100 100 100 100 24 86 91 84 73 54 34 2 0 0 0 0 0 0 0 0 0 0 0 0 5 35 51 1 5 4
0 0 0 0 0 0 0 0 1 82 100 100 93 100 100 99 100 100 12 53 64 70 63 73 69 20 10 0 0 0 53 0 0 0 0 0 0 27 45 82 1 4 70
31 44 29 10 0 1 6 0 2 5 46 100 100 99 100 96 100 100 38 6 42 98 70 89 99 41 13 9 8 0 0 2 0 0 0 0 0 24 68 78 0 75 6
100 100 100 67 41 2 17 1 0 38 24 25 98 100 84 99 99 100 52 57 8 30 100 85 68 56 39 23 13 0 2 54 29 0 4 0 9 9 13 22 34 1 0
100 100 100 100 78 95 25 17 0 4 42 10 89 37 100 99 92 100 98 65 76 32 13 31 62 39 15 6 0 0 0 0 0 0 3 15 33 11 6 15 20 4 4
100 100 100 100 81 79 99 13 11 45 98 63 7 100 78 100 73 100 92 100 99 98 93 94 53 5 5 6 40 95 95 94 96 10 17 34 36 96 100 100 7 0 0

GFSMW_prec_cloud_072.txt.gz
Cloud_Cover
74 74 3 14 2 10 5 4 0 5 0 0 0 9 10 35 57 76 3 0 0 1 0 36 0 0 1 1 0 0 1 33 0 62 34 0 0 0 0 0 0 0 0
66 50 1 35 5 16 6 5 2 16 0 0 0 0 23 42 98 36 3 2 0 0 0 2 3 0 0 0 0 0 85 19 0 54 33 12 6 0 0 0 0 0 0
97 53 26 21 0 98 38 3 5 6 0 0 0 9 0 0 20 20 4 14 2 0 0 0 6 0 27 9 0 0 9 61 0 0 32 58 23 5 0 0 0 0 0
100 86 61 25 6 18 60 0 2 0 0 0 0 0 2 30 37 48 76 3 19 24 0 0 0 0 9 6 0 0 8 11 0 0 0 0 0 44 0 0 0 0 0
100 99 87 100 23 3 5 2 0 0 0 0 0 0 2 7 1 96 38 10 5 88 0 0 0 0 8 0 0 0 0 0 1 35 14 1 1 0 13 0 0 0 0
74 66 100 99 11 0 5 4 0 0 0 2 0 0 0 6 25 10 10 2 8 59 0 1 1 1 5 0 0 0 0 0 0 30 20 81 99 27 8 2 0 0 0
97 57 71 90 33 0 3 11 0 0 0 0 0 0 0 0 0 4 5 100 99 8 0 12 92 0 0 0 0 0 0 0 0 0 65 5 33 90 16 24 0 2 0
33 50 51 62 86 4 5 42 2 0 0 0 0 0 0 0 0 1 33 41 100 51 4 1 4 0 0 0 0 0 0 0 0 0 5 52 12 39 59 27 1 2 0
59 66 73 48 61 12 5 14 5 4 0 6 0 0 0 0 0 11 1 0 0 82 0 0 0 0 5 1 0 20 0 0 0 0 0 9 16 1 0 0 0 1 19
89 100 98 90 76 37 44 74 38 73 2 38 13 4 0 0 0 0 1 0 3 2 22 0 8 5 5 5 0 0 0 0 0 0 0 5 10 5 5 1 0 0 0
93 87 100 91 100 100 72 100 100 85 94 5 14 10 0 0 0 0 0 0 0 0 0 0 4 1 4 0 0 6 5 0 0 0 0 1 5 29 19 3 0 0 0
100 98 100 99 100 100 100 100 100 100 100 5 0 5 41 26 0 0 0 0 0 0 0 0 0 0 0 0 1 5 5 5 0 0 0 3 0 5 5 9 0 0 0
100 97 100 100 98 94 100 100 100 93 98 100 75 54 21 91 5 0 0 0 0 0 0 0 1 0 5 9 0 0 5 0 0 0 0 0 0 4 5 18 2 0 5
100 100 100 100 100 100 100 100 96 100 100 80 11 3 86 0 25 0 1 0 0 0 0 0 0 0 0 7 10 5 0 5 0 1 0 0 5 0 2 5 5 4 5
100 100 100 100 100 100 95 99 100 100 99 75 100 82 2 13 0 0 0 3 0 0 0 0 0 0 0 0 0 0 0 0 0 1 0 0 0 0 0 23 7 5 8
100 100 100 100 100 100 100 100 100 100 100 100 100 100 100 95 28 11 0 0 8 7 0 0 0 0 0 0 0 0 0 0 0 0 0 0 0 0 1 0 5 5 5
0 52 100 100 89 99 90 100 100 99 100 100 100 100 100 100 100 81 53 4 0 0 0 0 0 0 0 0 0 0 0 0 0 0 0 0 0 0 0 59 25 39 5
0 0 0 91 100 100 99 40 36 71 100 100 100 99 92 100 84 100 100 93 57 25 2 0 0 0 0 0 0 0 0 0 0 0 0 0 0 0 0 0 0 0 2
0 0 0 0 1 55 98 100 100 99 95 100 98 100 100 100 100 100 70 32 100 99 49 19 3 0 0 0 0 3 0 0 0 0 0 0 0 0 0 0 0 0 0
0 0 0 0 0 0 0 69 98 74 100 100 100 100 100 100 100 100 100 100 75 6 53 87 39 28 0 0 0 6 0 0 0 0 0 0 0 0 0 0 0 0 0
0 0 0 0 0 0 0 0 0 1 46 73 92 97 100 100 100 99 100 100 98 10 22 11 97 83 7 2 0 0 0 0 0 0 0 0 0 0 0 1 0 0 2
0 0 0 0 0 0 0 0 0 0 22 97 99 36 100 95 100 100 100 81 100 100 15 6 34 74 45 3 1 0 71 0 0 0 0 0 0 0 0 44 0 0 66
0 0 0 0 0 0 0 0 0 0 0 0 43 97 96 100 100 43 98 99 89 65 11 5 4 56 100 41 1 0 0 8 5 0 0 0 0 0 65 22 0 73 2
6 8 24 7 9 24 19 8 11 15 3 0 1 2 0 97 9 100 93 61 46 98 68 27 92 5 66 42 78 50 6 56 38 0 0 0 1 25 15 9 34 1 0
81 98 92 96 45 38 96 100 16 11 5 0 0 0 0 6 94 69 100 98 42 47 100 81 83 17 7 33 94 100 100 22 1 0 0 0 0 0 0 0 0 0 0
73 100 100 98 70 53 44 95 99 67 30 30 0 0 0 0 0 1 8 74 99 20 100 56 50 10 32 33 93 93 97 96 94 11 4 0 0 0 0 0 0 0 0

GFSMW_prec_cloud_075.txt.gz
Cloud_Cover
100 100 100 99 100 8 0 5 10 3 2 0 10 95 29 100 100 77 8 0 98 0 0 28 0 0 99 64 0 0 28 17 0 48 28 6 0 6 0 20 9 0 0
100 100 100 100 100 38 7 0 39 5 0 7 78 39 100 98 21 100 11 95 95 11 0 84 4 64 44 0 18 96 56 66 82 62 99 78 4 0 18 0 0 0 0
99 100 100 99 44 79 5 0 0 5 0 17 17 0 43 95 65 66 17 28 18 8 75 8 100 5 46 5 0 4 72 91 0 83 14 95 81 46 0 0 0 0 0
100 100 100 100 100 50 2 0 0 0 0 0 13 92 0 29 0 14 100 0 55 90 78 20 16 0 95 86 0 0 77 70 31 2 1 0 44 19 0 0 0 0 0
73 100 100 100 100 39 0 0 0 0 0 0 86 32 15 100 62 51 77 8 2 54 99 61 42 4 0 1 99 14 0 36 12 95 37 0 0 28 56 0 0 0 0
84 100 98 100 100 84 1 0 0 0 0 1 0 10 21 23 99 95 37 7 10 23 86 91 98 12 91 2 0 0 0 5 15 11 22 3 46 25 18 5 3 0 0
99 79 100 36 18 100 9 0 1 0 0 2 3 0 0 0 32 54 14 14 18 15 5 100 39 1 0 2 0 0 31 0 3 0 17 33 100 27 38 96 35 46 0
98 23 32 99 20 100 43 0 0 3 0 0 0 6 0 0 1 6 80 69 78 100 2 7 8 1 42 0 2 0 0 0 1 0 9 39 93 58 3 65 40 8 0
100 76 46 100 71 100 73 1 0 0 0 0 1 2 5 0 12 77 6 78 100 66 13 4 53 21 74 28 4 28 1 100 0 8 0 1 97 67 44 3 44 90 74
46 100 98 100 79 66 100 24 0 2 5 3 0 1 3 8 0 0 0 30 98 10 99 2 28 88 53 28 2 43 5 0 0 8 21 5 81 63 19 60 18 0 0
59 57 75 97 90 100 100 100 46 5 5 4 1 1 4 2 9 0 0 0 0 0 1 28 98 95 40 10 8 9 56 5 1 0 98 4 5 7 40 17 1 0 0
94 100 69 80 100 100 100 100 80 38 62 18 24 8 41 11 26 4 0 0 0 0 0 0 4 38 71 68 8 24 17 5 3 0 0 0 5 5 5 8 0 0 1
98 100 100 100 100 100 100 100 78 100 96 61 54 8 16 5 6 20 4 0 0 0 0 1 0 24 100 100 65 25 4 31 5 3 0 0 0 1 5 30 2 3 2
63 99 92 98 100 100 97 100 66 52 70 100 84 24 11 2 54 62 27 18 0 0 0 0 16 6 19 87 100 100 99 6 66 5 2 0 2 0 0 5 6 2 5
100 84 69 99 100 100 96 100 97 75 76 100 100 80 62 13 44 25 29 3 22 0 0 0 0 1 0 0 5 10 7 20 4 17 0 0 0 0 0 0 9 5 5
100 98 100 63 100 100 100 100 100 100 100 100 86 98 9 92 76 86 36 52 25 0 0 0 0 0 0 0 2 5 5 2 0 4 0 0 0 0 0 0 0 4 2
96 68 60 57 100 98 98 100 100 98 77 100 100 96 74 100 100 100 74 99 36 52 4 0 0 0 0 0 0 0 0 6 18 0 0 0 0 0 0 0 0 0 0
0 16 20 100 97 67 27 19 4 58 100 100 100 100 100 93 96 100 100 100 87 28 10 14 0 0 0 0 0 0 0 0 0 0 0 0 0 0 4 0 0 0 0
0 0 0 0 3 91 100 99 85 40 42 99 95 100 100 100 100 95 100 99 14 61 95 53 2 1 0 0 0 0 0 0 0 0 0 0 0 0 0 0 0 0 0
0 0 0 0 0 0 0 8 68 66 100 97 40 50 86 100 100 100 100 100 96 100 74 16 14 0 0 0 0 1 0 0 0 0 0 0 0 0 0 0 0 0 0
0 0 0 0 0 0 0 0 0 0 60 55 7 28 91 86 84 99 100 98 95 100 100 59 0 0 0 0 0 0 1 0 0 0 0 0 0 0 0 0 0 0 2
0 0 0 0 0 0 0 0 0 0 0 0 0 0 0 12 7 74 100 87 94 99 100 100 100 22 4 0 0 0 73 0 0 0 0 0 0 0 0 1 0 0 66
0 0 0 0 0 0 0 0 0 7 1 0 0 0 0 0 0 3 81 100 92 72 100 100 100 100 77 33 4 22 0 5 0 0 0 0 0 0 65 8 0 10 2
4 4 2 1 0 8 0 0 0 0 0 0 0 0 0 0 0 0 5 76 100 100 61 78 49 100 100 100 35 77 14 61 31 0 1 0 0 37 8 20 20 0 0
4 1 2 2 3 14 20 16 8 1 0 0 0 0 0 0 0 0 0 4 90 100 80 100 98 58 100 100 79 96 87 90 30 4 30 3 0 0 0 0 0 0 0
2 1 1 1 5 11 20 25 62 74 62 3 0 0 0 0 0 0 0 0 1 81 100 100 100 92 78 43 92 100 100 100 100 62 61 33 14 19 3 0 1 0 0